| time (UTC) | temp F | wind direction | speed MPH | gust MPH | rain 1hr in | rain 24hr in | rain mn in | humidity % | barometer mb |
| 20260503212704 | 44 | 159 | 2.0 | 4.0 | 0.00 | 0.08 | 0.08 | 89 | 1004.2 |
| 20260503211803 | 44 | 170 | 2.0 | 4.0 | 0.00 | 0.08 | 0.08 | 89 | 1004.6 |
| 20260503210924 | 44 | 191 | 2.0 | 6.0 | 0.00 | 0.08 | 0.08 | 89 | 1004.6 |
| 20260503210006 | 44 | 144 | 1.0 | 4.0 | 0.00 | 0.08 | 0.08 | 89 | 1004.4 |
| 20260503205403 | 44 | 147 | 2.0 | 4.0 | 0.00 | 0.08 | 0.08 | 89 | 1004.6 |
| 20260503204503 | 44 | 150 | 2.0 | 4.0 | 0.00 | 0.08 | 0.08 | 89 | 1004.5 |
| 20260503203604 | 44 | 140 | 2.0 | 4.0 | 0.00 | 0.09 | 0.08 | 89 | 1004.7 |
| 20260503202703 | 44 | 140 | 2.0 | 4.0 | 0.00 | 0.09 | 0.08 | 89 | 1004.8 |
| 20260503201805 | 44 | 135 | 2.0 | 4.0 | 0.00 | 0.09 | 0.08 | 88 | 1004.8 |
| 20260503200903 | 44 | 135 | 2.0 | 4.0 | 0.00 | 0.09 | 0.08 | 88 | 1004.7 |
| 20260503200003 | 44 | 137 | 2.0 | 4.0 | 0.00 | 0.09 | 0.08 | 87 | 1004.8 |
| 20260503195403 | 44 | 137 | 2.0 | 4.0 | 0.00 | 0.09 | 0.08 | 87 | 1004.7 |
| 20260503194504 | 44 | 132 | 2.0 | 4.0 | 0.00 | 0.09 | 0.08 | 86 | 1004.8 |
| 20260503193603 | 44 | 139 | 2.0 | 4.0 | 0.00 | 0.09 | 0.08 | 85 | 1005.1 |
| 20260503192703 | 44 | 131 | 1.0 | 4.0 | 0.00 | 0.09 | 0.08 | 85 | 1004.9 |
| 20260503191805 | 44 | 132 | 1.0 | 4.0 | 0.00 | 0.09 | 0.08 | 85 | 1004.9 |
| 20260503190905 | 45 | 147 | 1.0 | 4.0 | 0.00 | 0.09 | 0.08 | 84 | 1005.1 |
| 20260503190025 | 45 | 147 | 3.0 | 4.0 | 0.00 | 0.11 | 0.08 | 83 | 1005.2 |
| 20260503185403 | 45 | 149 | 2.0 | 4.0 | 0.00 | 0.11 | 0.08 | 83 | 1005.1 |
| 20260503184503 | 45 | 156 | 2.0 | 4.0 | 0.00 | 0.12 | 0.08 | 83 | 1005.1 |
| 20260503183604 | 45 | 174 | 2.0 | 4.0 | 0.00 | 0.13 | 0.08 | 82 | 1005.4 |
| 20260503182704 | 45 | 137 | 2.0 | 4.0 | 0.00 | 0.13 | 0.08 | 82 | 1005.1 |
| 20260503181803 | 45 | 147 | 2.0 | 4.0 | 0.00 | 0.13 | 0.08 | 82 | 1005.3 |
| 20260503180926 | 45 | 146 | 1.0 | 4.0 | 0.00 | 0.13 | 0.08 | 82 | 1005.1 |
| 20260503180005 | 45 | 140 | 2.0 | 4.0 | 0.00 | 0.13 | 0.08 | 81 | 1005.3 |
| 20260503175426 | 45 | 147 | 2.0 | 4.0 | 0.00 | 0.13 | 0.08 | 81 | 1005.3 |
| 20260503174505 | 46 | 142 | 2.0 | 4.0 | 0.00 | 0.13 | 0.08 | 80 | 1005.4 |
| 20260503173603 | 45 | 148 | 2.0 | 6.0 | 0.00 | 0.13 | 0.08 | 80 | 1005.2 |
| 20260503172724 | 45 | 139 | 2.0 | 6.0 | 0.00 | 0.13 | 0.08 | 80 | 1005.2 |
| 20260503171803 | 45 | 141 | 2.0 | 6.0 | 0.00 | 0.13 | 0.08 | 80 | 1005.5 |
| 20260503170903 | 46 | 135 | 2.0 | 6.0 | 0.00 | 0.13 | 0.08 | 80 | 1005.4 |
| 20260503150903 | 46 | 154 | 3.0 | 6.0 | 0.00 | 0.13 | 0.08 | 77 | 1006.3 |
| 20260503130903 | 46 | 51 | 1.0 | 4.0 | 0.00 | 0.13 | 0.08 | 71 | 1006.9 |
| 20260503080903 | 44 | 30 | 2.0 | 6.0 | 0.00 | 0.13 | 0.08 | 77 | 1007.9 |
| 20260503072703 | 43 | 20 | 1.0 | 4.0 | 0.00 | 0.13 | 0.08 | 82 | 1008.0 |
| 20260503071803 | 43 | 21 | 2.0 | 4.0 | 0.00 | 0.13 | 0.08 | 83 | 1007.6 |
| 20260503070903 | 43 | 13 | 1.0 | 4.0 | 0.00 | 0.13 | 0.08 | 84 | 1007.8 |
| 20260503054505 | 41 | 24 | 1.0 | 4.0 | 0.00 | 0.13 | 0.08 | 86 | 1007.6 |
| 20260503053603 | 41 | 17 | 2.0 | 4.0 | 0.00 | 0.13 | 0.08 | 87 | 1007.9 |
| 20260503052703 | 41 | 32 | 2.0 | 4.0 | 0.00 | 0.13 | 0.08 | 87 | 1007.5 |
| 20260503051805 | 41 | 38 | 1.0 | 6.0 | 0.00 | 0.13 | 0.08 | 87 | 1007.6 |
| 20260503050903 | 40 | 49 | 3.0 | 8.0 | 0.00 | 0.13 | 0.08 | 86 | 1007.2 |
| 20260503050003 | 40 | 52 | 2.0 | 7.0 | 0.00 | 0.13 | 0.08 | 86 | 1007.4 |
| 20260503045424 | 40 | 36 | 2.0 | 7.0 | 0.00 | 0.13 | 0.08 | 86 | 1007.3 |
| 20260503044503 | 40 | 25 | 3.0 | 9.0 | 0.00 | 0.13 | 0.08 | 85 | 1007.4 |
| 20260503043603 | 40 | 22 | 6.0 | 11.0 | 0.00 | 0.13 | 0.08 | 85 | 1007.6 |
| 20260503042703 | 40 | 23 | 2.0 | 9.0 | 0.00 | 0.13 | 0.08 | 88 | 1007.5 |
| 20260503041804 | 41 | 17 | 4.0 | 9.0 | 0.00 | 0.13 | 0.08 | 88 | 1007.5 |
| 20260503040926 | 41 | 3 | 3.0 | 8.0 | 0.00 | 0.13 | 0.08 | 86 | 1007.4 |
| 20260503040005 | 41 | 12 | 3.0 | 9.0 | 0.00 | 0.13 | 0.08 | 88 | 1007.2 |
| 20260503035403 | 41 | 19 | 3.0 | 11.0 | 0.00 | 0.13 | 0.08 | 87 | 1007.1 |
| 20260503034503 | 41 | 20 | 3.0 | 9.0 | 0.01 | 0.13 | 0.08 | 87 | 1007.2 |
| 20260503033603 | 41 | 26 | 5.0 | 9.0 | 0.01 | 0.13 | 0.08 | 86 | 1007.0 |
| 20260503032703 | 42 | 4 | 4.0 | 15.0 | 0.02 | 0.13 | 0.08 | 88 | 1006.8 |
| 20260503031803 | 42 | 20 | 5.0 | 13.0 | 0.04 | 0.13 | 0.08 | 89 | 1006.6 |
| 20260503030924 | 42 | 6 | 6.0 | 11.0 | 0.04 | 0.13 | 0.08 | 93 | 1006.7 |
| 20260503030003 | 43 | 21 | 4.0 | 11.0 | 0.04 | 0.13 | 0.08 | 95 | 1006.6 |
| 20260503025405 | 43 | 38 | 5.0 | 11.0 | 0.04 | 0.13 | 0.08 | 96 | 1006.6 |
| 20260503024503 | 43 | 12 | 2.0 | 8.0 | 0.02 | 0.12 | 0.07 | 96 | 1006.4 |
| 20260503023605 | 43 | 36 | 4.0 | 9.0 | 0.02 | 0.12 | 0.07 | 96 | 1006.3 |
| 20260503022724 | 44 | 17 | 2.0 | 11.0 | 0.01 | 0.11 | 0.06 | 95 | 1006.2 |
| 20260503021803 | 44 | 28 | 2.0 | 9.0 | 0.00 | 0.09 | 0.05 | 94 | 1006.0 |
| 20260503020903 | 44 | 15 | 6.0 | 15.0 | 0.00 | 0.09 | 0.05 | 93 | 1005.9 |
| 20260503020003 | 44 | 33 | 4.0 | 13.0 | 0.00 | 0.09 | 0.05 | 94 | 1005.7 |
| 20260503015403 | 44 | 34 | 4.0 | 9.0 | 0.00 | 0.09 | 0.05 | 95 | 1005.7 |
| 20260503014503 | 45 | 51 | 4.0 | 11.0 | 0.00 | 0.09 | 0.05 | 95 | 1005.3 |
| 20260503013603 | 45 | 2 | 7.0 | 16.0 | 0.00 | 0.09 | 0.05 | 96 | 1005.1 |
| 20260503012703 | 49 | 84 | 2.0 | 4.0 | 0.00 | 0.09 | 0.05 | 99 | 1005.0 |
| 20260503011824 | 49 | 90 | 1.0 | 2.0 | 0.01 | 0.09 | 0.05 | 99 | 1004.7 |
| 20260503010903 | 48 | 100 | 0.0 | 2.0 | 0.01 | 0.09 | 0.05 | 99 | 1004.7 |
| 20260503010026 | 48 | 112 | 1.0 | 2.0 | 0.01 | 0.09 | 0.05 | 98 | 1004.7 |
| 20260503005403 | 48 | 112 | 0.0 | 2.0 | 0.01 | 0.09 | 0.05 | 98 | 1004.8 |
| 20260503004503 | 48 | 127 | 1.0 | 2.0 | 0.01 | 0.09 | 0.05 | 98 | 1004.8 |
| 20260503003603 | 49 | 139 | 0.0 | 2.0 | 0.01 | 0.09 | 0.05 | 97 | 1004.8 |
| 20260503002726 | 49 | 146 | 0.0 | 2.0 | 0.02 | 0.09 | 0.05 | 97 | 1004.9 |
| 20260503001804 | 48 | 0 | 0.0 | 0.0 | 0.01 | 0.08 | 0.04 | 96 | 1004.7 |
| 20260503000903 | 48 | 0 | 0.0 | 0.0 | 0.02 | 0.08 | 0.04 | 96 | 1004.8 |
| 20260503000003 | 49 | 0 | 0.0 | 0.0 | 0.02 | 0.08 | 0.04 | 96 | 1004.7 |
| 20260502235403 | 49 | 0 | 0.0 | 0.0 | 0.02 | 0.08 | 0.04 | 94 | 1004.4 |
| 20260502234506 | 49 | 157 | 0.0 | 2.0 | 0.04 | 0.08 | 0.04 | 93 | 1004.9 |
| 20260502233603 | 49 | 199 | 1.0 | 2.0 | 0.04 | 0.08 | 0.04 | 93 | 1004.8 |
| 20260502232704 | 49 | 213 | 2.0 | 2.0 | 0.02 | 0.07 | 0.02 | 93 | 1004.9 |
| 20260502231803 | 49 | 206 | 1.0 | 4.0 | 0.02 | 0.07 | 0.02 | 91 | 1004.9 |
| 20260502230903 | 49 | 274 | 2.0 | 4.0 | 0.01 | 0.06 | 0.01 | 90 | 1004.8 |
| 20260502230005 | 50 | 292 | 2.0 | 2.0 | 0.01 | 0.06 | 0.01 | 88 | 1004.9 |
| 20260502225403 | 50 | 304 | 2.0 | 2.0 | 0.01 | 0.06 | 0.01 | 85 | 1004.9 |
| 20260502224503 | 51 | 315 | 2.0 | 2.0 | 0.00 | 0.05 | 0.00 | 85 | 1004.9 |
| 20260502223603 | 51 | 315 | 1.0 | 2.0 | 0.00 | 0.05 | 0.00 | 85 | 1004.7 |
| 20260502222703 | 51 | 315 | 0.0 | 2.0 | 0.00 | 0.05 | 0.00 | 86 | 1004.6 |
| 20260502221803 | 50 | 315 | 0.0 | 2.0 | 0.00 | 0.05 | 0.00 | 86 | 1004.5 |
| 20260502220925 | 50 | 315 | 0.0 | 2.0 | 0.00 | 0.05 | 0.00 | 87 | 1004.7 |
| 20260502220003 | 50 | 315 | 0.0 | 2.0 | 0.00 | 0.05 | 0.00 | 85 | 1004.7 |
| 20260502215405 | 51 | 315 | 1.0 | 2.0 | 0.00 | 0.05 | 0.05 | 86 | 1004.7 |
| 20260502214504 | 51 | 315 | 2.0 | 2.0 | 0.00 | 0.05 | 0.05 | 83 | 1004.7 |
| 20260502213603 | 51 | 315 | 0.0 | 2.0 | 0.01 | 0.05 | 0.05 | 80 | 1004.5 |